Showing default

FARADAY_PHOENIX, 48924

Orbit data source: Space-Track

FARADAY_PHOENIX, 48924 is a payload satellite owned by In-Space (UK) in SSO that was launched on Wed, 30 Jun 2021 UTC via an FALCON 9 launch vehicle from the Air Force Eastern Test Range (AFETR). Payload-class satellites include a variety of spacecraft equipped with specific instruments for various scientific and technological missions. These include communications satellites like Starlink; space stations such as the ISS; scientific satellites like the Hubble; Earth observation satellites from companies like Planet Labs, Umbra, and HawkEye 360; GPS; miniature CubeSats for education and research; and military/defense satellites.

Loading next visibility...
Identifier
48924, 2021-059AX
Orbit
SSO
Country
Flag of UKUK
Related business
Manufacturer
GOMSpace
Mission
Operational Commercial Technology
Bus & Motor
CUBESAT 6U, Unknown motor
Mass
10 kg wet, ~10 kg dry
Launch date (UTC)
2021-06-30 (4 years ago)
Launch vehicle
FALCON 9
Launch site
Air Force Eastern Test Range (AFETR)
Object type
Payload
Rocket body
Debris
Shape & HBR
Box, 0.1 m
Radar Cross Section
0.080 m², Small (<0.1 m²)

Expand to show TLE details & history
Last TLE update: 19 hours ago

TLE from 19 hours ago
0 FARADAY_PHOENIX
1 48924U 21059AX  25310.90930153  .00022734  00000-0  41134-3 0  9999
2 48924  97.6927 125.3699 0008316  63.6920 296.5184 15.49650804242991
Epoch: 2025-11-06T21:49Z
TLE epoch observation values (Epoch: 2025-11-06T21:49:23.652Z)
Latitude
0.00003°
Longitude
111.66049°
Altitude
418.349 km
Speed
7.662 km/s
True Right ascension
08h 21m 28s
True Declination
0° 00' 00"
Sunlit
Object was in daylight at epoch
Visualization orbit readout
Latitude
Unknown
Longitude
Unknown
Altitude
Unknown
Speed
Unknown
Apparent Right ascension
Unknown
Apparent Declination
Unknown
Sunlit
N/A
Visualization observer readout
Local Sidereal Time
13:05:37
Azimuth
Unknown
Elevation
Unknown
Doppler factor
Unknown
Orbital elements
Apogee altitude
420.335 km
Perigee altitude
409.037 km
Semi-major axis
6,792.823 km
Eccentricity
0.00083
Inclination
97.6927°
RAAN
125.3699°
Arg. of periapsis
63.692°
True anomaly
296.43309°
Mean anomaly
296.5184°
Eccentric anomaly
296.47575°
Mean motion
3.87675 °/min
Orbital period
92.86 mins
BSTAR
0.00041134
Loading maneuver chart data...
Computing Atmospheric mass density...
Loading historical data...
Loading historical data...
Loading historical data...
Loading historical data...
Loading historical data...
Loading historical data...
Loading historical data...

Documentation

Showing up to 5 results
|